Location: Hurstbourne Priors
(51.2000°N, 1.3667°W)
Time: 18:50:23
(UTC+00:00)

Cosmos 1833 Rocket - Pass Details

Date: 09 April 2020
Orbit: 834 x 838 km, 71.0° (Epoch: 02 June)

Event Time Altitude Azimuth Distance (km) Brightness Sun altitude
Exits shadow 20:39:27 20° 94° (E) 1,864 4.0 -16.0°
Drops below altitude 10° 20:42:56 10° 56° (NE) 2,459 4.9 -16.4°
Sets 20:45:59 0° 40° (NE) 3,398 5.8 -16.8°
